Hovedside
METAR-TAF:

METAR-TAF

Lufthavner :

Sandane, Norge

Sandane lufthamn

breddegrad: 61-50N, lengdegrad: 006-07E, høyde over havet: 6 m

Gjeldene værobservasjon

Denne rapporten ble laget for 27 minutter siden, klokken 18:20 UTC
Vind 7 kt fra Sørøst
Temperatur 12°C
Luftfuktighet 94%
Trykk 1022 hPa
Sikt 10 km eller mer
Få skyer i en høyde av 3800 ft
Brutte skyer i en høyde av 5000 ft
lette regnbyger

METAR: ENSD 221820Z 13007KT 9999 -SHRA FEW038 BKN050 12/11 Q1022 RMK WIND 1138FT 06009KT

Tid: 20:47 (18:47 UTC)


TAF: fraværende

Værobservasjoner og værvarsel for over 4000 flyplasser (METAR- og TAF-rapporter).

Tilgjengelige stasjoner er representert av de røde og gule prikkene på kartet.

Hold musepekeren over prikken for å se navnet på stasjonen.

Klikk så for å se værobservasjoner og -varsler.

For å forandre kartet kan du klikke på den grønne knappen med svart kryss for å zoome inn, på den grønne knappen med strek for å zoome ut, eller på de grønne pilene for å se tilstøtende kart.


METAR-TAF: